Showing default

OV3-3, 2389

Orbit data source: Space-Track

OV3-3, 2389 is a payload satellite owned by USAF OAR (US) in LEO that was launched on Thu, 04 Aug 1966 UTC via an SCOUT B launch vehicle from the Air Force Western Test Range (AFWTR). Payload-class satellites include a variety of spacecraft equipped with specific instruments for various scientific and technological missions. These include communications satellites like Starlink; space stations such as the ISS; scientific satellites like the Hubble; Earth observation satellites from companies like Planet Labs, Umbra, and HawkEye 360; GPS; miniature CubeSats for education and research; and military/defense satellites.

Loading next visibility...
Identifier
2389, 1966-070A
Orbit
LEO
Country
Flag of USUS
Related business
Manufacturer
Space General
Mission
Spacecraft
Bus & Motor
OV3, Unknown motor
Mass
77 kg wet, 77 kg dry
Launch date (UTC)
1966-08-04 (60 years ago)
Launch vehicle
SCOUT B
Launch site
Air Force Western Test Range (AFWTR)
Object type
Payload
Rocket body
Debris
Shape & HBR
Unknown
Radar Cross Section
Medium (>0.1 m² and <1 m²)

Expand to show TLE details & history
Last TLE update: 8 hours ago

TLE from 8 hours ago
0 OV3-3
1 02389U 66070A   26150.95402649  .00013220  00000-0  59609-3 0  9994
2 02389  81.3254 346.2145 1013546 202.3664 153.0153 13.44841799596654
Epoch: 2026-05-30T22:53Z
TLE epoch observation values (Epoch: 2026-05-30T22:53:47.888Z)
Latitude
-0.00005°
Longitude
114.30231°
Altitude
1,782.756 km
Speed
6.66 km/s
True Right ascension
23h 04m 51s
True Declination
0° 00' 00"
Sunlit
Object was in daylight at epoch
Visualization orbit readout
Latitude
Unknown
Longitude
Unknown
Altitude
Unknown
Speed
Unknown
Apparent Right ascension
Unknown
Apparent Declination
Unknown
Sunlit
N/A
Visualization observer readout
Local Sidereal Time
16:37:09
Azimuth
Unknown
Elevation
Unknown
Doppler factor
Unknown
Orbital elements
Apogee altitude
1,845.292 km
Perigee altitude
331.733 km
Semi-major axis
7,466.65 km
Eccentricity
0.10135
Inclination
81.3254°
RAAN
346.2145°
Arg. of periapsis
202.3664°
True anomaly
157.74362°
Mean anomaly
153.0153°
Eccentric anomaly
155.42996°
Mean motion
3.36399 °/min
Orbital period
107.02 mins
BSTAR
0.00059609
Loading maneuver chart data...
Computing Atmospheric mass density...
Loading historical data...
Loading historical data...
Loading historical data...
Loading historical data...
Loading historical data...
Loading historical data...
Loading historical data...
Other satellites on launch #70 in the year 1966 (1966-08-04 UTC)

Documentation

Showing up to 5 results
|